Date String (YYYY-MM-DD hh:mm:ss) UTC,Instrument flags,absolute air pressure of the measurement (hPa),sample flow rate (lpm),inlet stack bypass flow (lpm),air temperature of the measurement (°C),ambient temperature measured by the external sensor (°C),aerosol sample conditioner tube jacket temperature (°C),OPC LED temperature (°C),internal box temperature (°C),relative humidity of the measurement (%),span deviation,mass concentration of particles derived from Lorenz-Mie calculation of OPC scattering (μg/m³),mass concentration of particles derived from Lorenz-Mie calculation of OPC scattering (μg/m³),mass concentration of particles derived from Lorenz-Mie calculation of OPC scattering (μg/m³)
DateTimeUTC,F1_M11,P_M11,Q1_M11,Q2_M11,T1_M11,T2_M11,T3_M11,T4_M11,T5_M11,U1_M11,ZSPAN_M11,X0_M11,X2_M11,X1_M11
2023-06-18 00:00:00,SystemResetWarning,0827.9,5.00,000.00,029.7,027.9,000.0,038.2,031.3,17.3,0000.0,0007.03,0001.89,0001.61
2023-06-18 00:01:00,SystemResetWarning,0827.9,5.00,000.00,029.8,028.0,000.0,038.2,031.4,15.5,0000.0,0007.41,0001.89,0001.59
2023-06-18 00:02:00,SystemResetWarning,0827.9,5.00,000.00,029.8,028.2,000.0,038.2,031.4,15.3,0000.0,0007.25,0001.90,0001.58
2023-06-18 00:03:00,SystemResetWarning,0828.0,5.00,000.00,029.8,028.3,000.0,038.3,031.5,15.9,0000.0,0004.95,0001.88,0001.55
2023-06-18 00:04:00,SystemResetWarning,0828.0,5.00,000.00,029.9,028.5,000.0,038.3,031.5,16.2,0000.0,0004.93,0001.86,0001.53
2023-06-18 00:05:00,SystemResetWarning,0828.0,4.98,000.00,029.9,027.2,000.0,038.3,031.5,15.1,0000.0,0004.82,0001.82,0001.51
2023-06-18 00:06:00,SystemResetWarning,0828.0,5.01,000.00,029.9,025.4,000.0,038.2,031.3,15.2,0000.0,0004.49,0001.81,0001.49
2023-06-18 00:07:00,SystemResetWarning,0828.1,5.01,000.00,029.8,025.4,000.0,038.2,031.2,15.1,0000.0,0004.18,0001.80,0001.45
2023-06-18 00:08:00,SystemResetWarning,0828.0,5.00,000.00,029.7,025.8,000.0,038.2,031.1,14.6,0000.0,0004.12,0001.78,0001.44
2023-06-18 00:09:00,SystemResetWarning,0828.1,4.99,000.00,029.7,026.2,000.0,038.2,031.1,15.8,0000.0,0003.91,0001.74,0001.43
2023-06-18 00:10:00,SystemResetWarning,0828.1,5.00,000.00,029.7,026.6,000.0,038.2,031.1,16.3,0000.0,0003.79,0001.70,0001.42
2023-06-18 00:11:00,SystemResetWarning,0828.1,5.00,000.00,029.7,027.0,000.0,038.2,031.2,16.8,0000.0,0003.80,0001.70,0001.41
2023-06-18 00:12:00,SystemResetWarning,0828.0,5.01,000.00,029.7,027.3,000.0,038.2,031.2,15.8,0000.0,0003.20,0001.69,0001.42
2023-06-18 00:13:00,SystemResetWarning,0828.1,4.99,000.00,029.7,027.6,000.0,038.2,031.3,15.9,0000.0,0002.36,0001.69,0001.41
2023-06-18 00:14:00,SystemResetWarning,0828.1,4.99,000.00,029.7,027.8,000.0,038.2,031.3,16.6,0000.0,0002.50,0001.71,0001.40
2023-06-18 00:15:00,SystemResetWarning,0828.1,5.00,000.00,029.8,028.0,000.0,038.2,031.4,15.6,0000.0,0002.66,0001.76,0001.42
2023-06-18 00:16:00,SystemResetWarning,0828.1,5.00,000.00,029.8,028.2,000.0,038.3,031.4,16.2,0000.0,0002.71,0001.79,0001.42
2023-06-18 00:17:00,SystemResetWarning,0828.1,5.00,000.00,029.8,028.3,000.0,038.3,031.5,16.4,0000.0,0002.71,0001.80,0001.44
2023-06-18 00:18:00,SystemResetWarning,0828.1,5.01,000.00,029.9,028.4,000.0,038.3,031.5,16.0,0000.0,0002.65,0001.78,0001.44
2023-06-18 00:19:00,SystemResetWarning,0828.1,4.98,000.00,029.9,026.9,000.0,038.3,031.5,16.2,0000.0,0002.66,0001.79,0001.44
2023-06-18 00:20:00,SystemResetWarning,0828.1,5.01,000.00,029.9,025.4,000.0,038.2,031.4,16.7,0000.0,0002.73,0001.80,0001.43
2023-06-18 00:21:00,SystemResetWarning,0828.0,5.01,000.00,029.8,025.5,000.0,038.2,031.2,16.5,0000.0,0002.81,0001.82,0001.44
2023-06-18 00:22:00,SystemResetWarning,0828.1,4.99,000.00,029.7,025.8,000.0,038.2,031.0,16.7,0000.0,0003.47,0001.83,0001.42
2023-06-18 00:23:00,SystemResetWarning,0828.0,5.00,000.00,029.7,026.2,000.0,038.2,031.0,15.4,0000.0,0004.38,0001.86,0001.41
2023-06-18 00:24:00,SystemResetWarning,0828.0,5.00,000.00,029.7,026.6,000.0,038.2,031.1,15.5,0000.0,0005.64,0001.85,0001.42
2023-06-18 00:25:00,SystemResetWarning,0828.1,4.99,000.00,029.7,027.0,000.0,038.2,031.2,15.5,0000.0,0005.49,0001.81,0001.42
2023-06-18 00:26:00,SystemResetWarning,0828.0,5.00,000.00,029.7,027.3,000.0,038.2,031.2,15.6,0000.0,0005.49,0001.81,0001.41
2023-06-18 00:27:00,SystemResetWarning,0828.1,5.00,000.00,029.7,027.6,000.0,038.2,031.3,17.0,0000.0,0005.51,0001.82,0001.41
2023-06-18 00:28:00,SystemResetWarning,0828.1,5.00,000.00,029.7,027.8,000.0,038.2,031.3,16.7,0000.0,0005.48,0001.79,0001.38
2023-06-18 00:29:00,SystemResetWarning,0828.1,5.01,000.00,029.8,028.0,000.0,038.2,031.4,17.0,0000.0,0005.49,0001.79,0001.39
2023-06-18 00:30:00,SystemResetWarning,0828.1,5.00,000.00,029.8,028.2,000.0,038.3,031.4,16.2,0000.0,0005.59,0001.82,0001.41
2023-06-18 00:31:00,SystemResetWarning,0828.1,5.01,000.00,029.8,028.3,000.0,038.3,031.5,17.1,0000.0,0005.53,0001.81,0001.41
2023-06-18 00:32:00,SystemResetWarning,0828.2,4.98,000.00,029.9,027.7,000.0,038.3,031.5,17.0,0000.0,0005.47,0001.81,0001.41
2023-06-18 00:33:00,SystemResetWarning,0828.1,5.01,000.00,029.8,025.6,000.0,038.2,031.3,17.3,0000.0,0005.06,0001.81,0001.43
2023-06-18 00:34:00,SystemResetWarning,0828.2,5.02,000.00,029.8,025.4,000.0,038.1,031.3,17.4,0000.0,0003.92,0001.78,0001.45
2023-06-18 00:35:00,SystemResetWarning,0828.3,5.00,000.00,029.7,025.6,000.0,038.1,031.0,18.8,0000.0,0003.03,0001.80,0001.47
2023-06-18 00:36:00,SystemResetWarning,0828.2,5.00,000.00,029.6,026.0,000.0,038.2,031.0,19.9,0000.0,0002.67,0001.83,0001.50
2023-06-18 00:37:00,SystemResetWarning,0828.3,4.99,000.00,029.6,026.5,000.0,038.2,031.0,19.6,0000.0,0002.58,0001.82,0001.51
2023-06-18 00:38:00,SystemResetWarning,0828.4,5.00,000.00,029.6,026.9,000.0,038.2,031.1,20.0,0000.0,0002.50,0001.81,0001.53
2023-06-18 00:39:00,SystemResetWarning,0828.4,5.00,000.00,029.6,027.2,000.0,038.2,031.2,19.9,0000.0,0002.64,0001.85,0001.56
2023-06-18 00:40:00,SystemResetWarning,0828.4,5.01,000.00,029.7,027.5,000.0,038.2,031.3,19.7,0000.0,0003.41,0001.92,0001.59
2023-06-18 00:41:00,SystemResetWarning,0828.4,4.99,000.00,029.7,027.7,000.0,038.2,031.3,20.3,0000.0,0003.52,0001.93,0001.61
2023-06-18 00:42:00,SystemResetWarning,0828.4,4.99,000.00,029.7,027.9,000.0,038.2,031.4,19.1,0000.0,0003.50,0001.93,0001.63
2023-06-18 00:43:00,SystemResetWarning,0828.4,5.00,000.00,029.8,028.1,000.0,038.2,031.4,17.8,0000.0,0003.56,0001.96,0001.65
2023-06-18 00:44:00,SystemResetWarning,0828.5,5.00,000.00,029.8,028.3,000.0,038.2,031.5,18.2,0000.0,0003.96,0001.98,0001.65
2023-06-18 00:45:00,SystemResetWarning,0828.6,5.00,000.00,029.8,028.4,000.0,038.3,031.5,18.7,0000.0,0004.30,0002.02,0001.66
2023-06-18 00:46:00,SystemResetWarning,0828.6,4.98,000.00,029.9,027.4,000.0,038.2,031.5,18.8,0000.0,0004.76,0002.03,0001.67
2023-06-18 00:47:00,SystemResetWarning,0828.6,5.01,000.00,029.8,025.4,000.0,038.2,031.4,18.3,0000.0,0004.80,0002.03,0001.66
2023-06-18 00:48:00,SystemResetWarning,0828.6,5.01,000.00,029.8,025.3,000.0,038.1,031.4,17.8,0000.0,0004.84,0002.03,0001.66
2023-06-18 00:49:00,SystemResetWarning,0828.6,5.01,000.00,029.7,025.6,000.0,038.1,031.1,18.2,0000.0,0005.25,0002.03,0001.66
2023-06-18 00:50:00,SystemResetWarning,0828.6,5.00,000.00,029.6,026.1,000.0,038.2,031.0,18.0,0000.0,0005.33,0002.06,0001.67
2023-06-18 00:51:00,SystemResetWarning,0828.6,4.99,000.00,029.6,026.5,000.0,038.2,031.1,18.1,0000.0,0004.61,0002.01,0001.67
2023-06-18 00:52:00,SystemResetWarning,0828.6,5.00,000.00,029.6,026.9,000.0,038.2,031.1,18.7,0000.0,0004.53,0001.99,0001.63
2023-06-18 00:53:00,SystemResetWarning,0828.6,4.99,000.00,029.7,027.2,000.0,038.2,031.2,19.3,0000.0,0005.40,0002.05,0001.62
2023-06-18 00:54:00,SystemResetWarning,0828.6,4.99,000.00,029.7,027.5,000.0,038.2,031.3,18.8,0000.0,0005.51,0002.03,0001.61
2023-06-18 00:55:00,SystemResetWarning,0828.6,5.00,000.00,029.7,027.7,000.0,038.2,031.3,18.9,0000.0,0005.18,0002.02,0001.60
2023-06-18 00:56:00,SystemResetWarning,0828.6,5.00,000.00,029.7,028.0,000.0,038.2,031.4,18.8,0000.0,0005.03,0002.03,0001.58
2023-06-18 00:57:00,SystemResetWarning,0828.6,5.01,000.00,029.8,028.1,000.0,038.2,031.4,18.8,0000.0,0004.54,0002.00,0001.54
2023-06-18 00:58:00,SystemResetWarning,0828.6,5.01,000.00,029.8,028.2,000.0,038.2,031.4,18.8,0000.0,0004.51,0001.97,0001.53
2023-06-18 00:59:00,SystemResetWarning,0828.6,5.00,000.00,029.8,028.4,000.0,038.3,031.5,18.5,0000.0,0004.51,0001.94,0001.49
